TimeEDT,TemperatureF,Dew PointF,Humidity,Sea Level PressureIn,VisibilityMPH,Wind Direction,Wind SpeedMPH,Gust SpeedMPH,PrecipitationIn,Events,Conditions,WindDirDegrees,DateUTC
12:53 AM,79.0,72.0,79,30.04,10.0,East,4.6,-,N/A,,Scattered Clouds,90,2013-10-04 04:53:00
1:53 AM,80.1,72.0,76,30.03,10.0,ENE,4.6,-,N/A,,Mostly Cloudy,70,2013-10-04 05:53:00
2:53 AM,77.0,71.1,82,30.02,10.0,Calm,Calm,-,N/A,,Scattered Clouds,0,2013-10-04 06:53:00
3:53 AM,75.0,71.1,87,30.01,10.0,Calm,Calm,-,N/A,,Clear,0,2013-10-04 07:53:00
4:53 AM,77.0,72.0,84,30.01,10.0,Calm,Calm,-,N/A,,Scattered Clouds,0,2013-10-04 08:53:00
5:53 AM,77.0,71.1,82,30.01,10.0,Calm,Calm,-,N/A,,Mostly Cloudy,0,2013-10-04 09:53:00
6:53 AM,77.0,71.1,82,30.02,10.0,Calm,Calm,-,N/A,,Mostly Cloudy,0,2013-10-04 10:53:00
7:53 AM,78.1,73.0,84,30.03,10.0,Calm,Calm,-,N/A,,Mostly Cloudy,0,2013-10-04 11:53:00
8:53 AM,82.0,71.1,69,30.05,10.0,Variable,5.8,-,N/A,,Mostly Cloudy,0,2013-10-04 12:53:00
9:53 AM,84.9,71.1,63,30.05,10.0,East,12.7,-,N/A,,Mostly Cloudy,90,2013-10-04 13:53:00
10:53 AM,84.9,72.0,65,30.06,10.0,ESE,9.2,-,N/A,,Mostly Cloudy,110,2013-10-04 14:53:00
11:53 AM,84.9,71.1,63,30.06,10.0,East,9.2,-,N/A,,Mostly Cloudy,100,2013-10-04 15:53:00
12:53 PM,87.1,71.1,59,30.04,10.0,East,6.9,-,N/A,,Mostly Cloudy,90,2013-10-04 16:53:00
1:53 PM,88.0,71.1,57,30.02,10.0,East,11.5,16.1,N/A,,Mostly Cloudy,80,2013-10-04 17:53:00
2:53 PM,87.1,71.1,59,30.01,10.0,East,12.7,-,N/A,,Mostly Cloudy,80,2013-10-04 18:53:00
3:53 PM,86.0,70.0,59,30.00,10.0,East,6.9,17.3,N/A,,Mostly Cloudy,80,2013-10-04 19:53:00
4:53 PM,84.9,70.0,61,29.99,10.0,East,9.2,-,N/A,,Mostly Cloudy,80,2013-10-04 20:53:00
5:53 PM,82.9,71.1,67,30.00,10.0,NE,6.9,-,N/A,,Mostly Cloudy,50,2013-10-04 21:53:00
6:53 PM,82.0,70.0,67,30.00,10.0,NE,9.2,-,N/A,,Mostly Cloudy,50,2013-10-04 22:53:00
7:53 PM,81.0,71.1,72,30.01,10.0,NE,6.9,-,N/A,,Mostly Cloudy,50,2013-10-04 23:53:00
8:53 PM,81.0,70.0,69,30.03,10.0,NE,5.8,-,N/A,,Mostly Cloudy,40,2013-10-05 00:53:00
9:53 PM,80.1,70.0,71,30.05,10.0,NE,4.6,-,N/A,,Mostly Cloudy,40,2013-10-05 01:53:00
10:53 PM,80.1,70.0,71,30.06,10.0,Calm,Calm,-,N/A,,Scattered Clouds,0,2013-10-05 02:53:00
11:53 PM,79.0,70.0,74,30.05,10.0,Calm,Calm,-,N/A,,Mostly Cloudy,0,2013-10-05 03:53:00